Terug naar catalogus

STARLINK-35218

ActiefCommunicatieVLEO
NORAD 66340·PAYLOAD·🇺🇸 United States

Gelanceerd Nov 6, 2025 vanaf Cape Canaveral Space Force Station

Loading…

Volgende Passages (komende 24 uur)

TLE

VersSource: CelesTrak SupGP

Epoch: Sep 14, 2026, 22:40 UTC

1 66340C 25253X   26257.94493056  .00014176  00000+0  51342-3 0  2571
2 66340  42.9994 223.9796 0001254 258.9128 158.1043 15.27573648    14

Volg STARLINK-35218 in realtime met AllMySat

Download on the App Store